铱星星座 69星 (IRIDIUM 69)

导读 | 豆包AI

IRIDIUM 69(铱星69)是美国铱星卫星移动通信系统的组成卫星,1998年5月2日发射入轨,运行于近地轨道,轨道倾角约86.4度,高度约780千米,周期约100分钟。作为全球首个低轨卫星通信系统成员,它支持全球语音、数据、传真等通信服务,目前已完成使命退役,见证了早期卫星通信技术的探索。

Basic Information
目录编号:
25319
目录名称:
IRIDIUM 69
国际标识:
1998-026A
轨道中心:
EARTH
卫星名称:
铱星星座 69星
卫星全名:
铱星星座 69星 (IRIDIUM 69)
卫星状态:
在轨 (已飞行10224 天)
发射日期:
1998-05-02 UTC
国别 :
美国 (US)
星等 :
--
Orbit Information
数据来源 国际轨道数据 AOE轨道数据
星历时间 2026-04-29T10:37:25+0800
14小时前
查看轨道信息
2026-04-23T02:00:00+0800
6天前
查看轨道信息
半长轴 7132.128km 7132.165km
偏心率 0.0004419 0.0004252
轨道倾角 86.396° 86.397°
近地点辐角 73.687° 87.082°
升交点赤经 321.885° 324.577°
平近点角 286.482° 56.169°
近地点 750.839km 750.995km
远地点 757.143km 757.061km
周期 99.905分钟 99.906分钟
每日圈数 14.413655 14.413542
Detailed Information
平衡模式:
三轴稳定
覆盖范围:
全球
运营商:
铱星通信公司
运营商所在国:
美国
使用方式:
暂无
Satellite Introduction
铱星(Iridium)是由共66个运作中的通信卫星组成的卫星通信系统。这个系统原本规划77个通信卫星,所以用原子序数为77的铱元素来命名。铱卫星允许人们使用手持型电子设备进行全球性的语音及数据通讯。该卫星已退役。
2D Orbit Map
3D Orbit Map
Orbit Altitude Analysis Chart
Orbit Inclination Analysis Chart
Orbit Comprehensive Analysis Chart
View Comprehensive Chart